When you browse on this site, cookies collect data to enhance your experience and personalize the content and advertising you see.
Visit our Privacy Policy to learn more. By continuing to use the site, you agree to this use of cookies and data.
  • In Schweiz
  • Länderverzeichnis
  • Für 7 Tage
  • Wassertemperatur
  • Satellitenkarten
  • Wetterkarte
  • Widgets
  • user-avatar
    Anmelden

    Stündliche Wetter Knapy

    Heute, 10 Dezember, Montag

    Zeit Temperatur Niederschläge Wind Luftdruck Luftfeuchtigkeit
    00:00 +4°C° 0.3 mm 7 m/S 733 mmHg 80%
    01:00 +4°C° 0 mm 7 m/S 734 mmHg 80%
    02:00 +3°C° 0.3 mm 7 m/S 734 mmHg 79%
    03:00 +2°C° 0.3 mm 8 m/S 734 mmHg 78%
    04:00 +2°C° 0.3 mm 8 m/S 734 mmHg 76%
    05:00 +2°C° 0.3 mm 8 m/S 735 mmHg 76%
    06:00 +2°C° 0.3 mm 8 m/S 736 mmHg 75%
    07:00 +1°C° 0 mm 8 m/S 737 mmHg 74%
    08:00 +1°C° 0.1 mm 8 m/S 738 mmHg 73%
    09:00 +1°C° 0.1 mm 8 m/S 738 mmHg 72%
    10:00 +1°C° 0.1 mm 8 m/S 739 mmHg 72%
    11:00 +1°C° 0.1 mm 8 m/S 739 mmHg 71%
    12:00 +1°C° 0.1 mm 8 m/S 740 mmHg 70%
    13:00 +1°C° 0 mm 8 m/S 740 mmHg 70%
    14:00 +2°C° 0.1 mm 7 m/S 740 mmHg 71%
    15:00 +2°C° 0.1 mm 7 m/S 740 mmHg 72%
    16:00 +2°C° 0.1 mm 6 m/S 741 mmHg 73%
    17:00 +1°C° 0.1 mm 6 m/S 741 mmHg 76%
    18:00 +1°C° 0.1 mm 6 m/S 741 mmHg 78%
    19:00 +1°C° 0.1 mm 5 m/S 741 mmHg 80%
    20:00 0°C° 0.1 mm 5 m/S 741 mmHg 80%
    21:00 0°C° 0.1 mm 5 m/S 741 mmHg 81%
    22:00 0°C° 0.1 mm 5 m/S 741 mmHg 82%
    23:00 0°C° 0.1 mm 5 m/S 741 mmHg 84%

    Morgen, 11 Dezember, Dienstag

    Zeit Temperatur Niederschläge Wind Luftdruck Luftfeuchtigkeit
    00:00 0°C° 0.1 mm 4 m/S 741 mmHg 85%
    01:00 -1°C° 0.1 mm 4 m/S 741 mmHg 87%
    02:00 -1°C° 0.1 mm 4 m/S 741 mmHg 88%
    03:00 -1°C° 0.1 mm 4 m/S 741 mmHg 89%
    04:00 -1°C° 0.1 mm 4 m/S 741 mmHg 91%
    05:00 -1°C° 0.3 mm 4 m/S 741 mmHg 91%
    06:00 0°C° 0.3 mm 4 m/S 740 mmHg 91%
    07:00 0°C° 0.3 mm 4 m/S 740 mmHg 91%
    08:00 0°C° 0.3 mm 4 m/S 740 mmHg 91%
    09:00 0°C° 0.3 mm 4 m/S 740 mmHg 90%
    10:00 0°C° 0.3 mm 4 m/S 741 mmHg 90%
    11:00 0°C° 0.3 mm 4 m/S 741 mmHg 90%
    12:00 +1°C° 0.3 mm 3 m/S 741 mmHg 91%
    13:00 +1°C° 0.3 mm 3 m/S 741 mmHg 91%
    14:00 +1°C° 0.3 mm 3 m/S 741 mmHg 92%
    15:00 +1°C° 0.3 mm 3 m/S 742 mmHg 93%
    16:00 +1°C° 0.3 mm 3 m/S 742 mmHg 94%
    17:00 +1°C° 0.2 mm 3 m/S 742 mmHg 94%
    18:00 0°C° 0.2 mm 3 m/S 743 mmHg 95%
    19:00 0°C° 0.2 mm 3 m/S 743 mmHg 96%
    20:00 0°C° 0.2 mm 3 m/S 743 mmHg 96%
    21:00 0°C° 0.2 mm 3 m/S 744 mmHg 97%
    22:00 0°C° 0.2 mm 3 m/S 744 mmHg 97%
    23:00 0°C° 0.2 mm 3 m/S 745 mmHg 97%

    übermorgen, 12 Dezember, Mittwoch

    Zeit Temperatur Niederschläge Wind Luftdruck Luftfeuchtigkeit
    00:00 0°C° 0.2 mm 3 m/S 745 mmHg 96%
    01:00 -1°C° 0.2 mm 4 m/S 746 mmHg 96%
    02:00 -1°C° 0.1 mm 4 m/S 746 mmHg 95%
    03:00 -1°C° 0.1 mm 4 m/S 746 mmHg 94%
    04:00 -1°C° 0.1 mm 4 m/S 747 mmHg 93%
    05:00 -2°C° 0 mm 4 m/S 747 mmHg 93%
    06:00 -2°C° 0 mm 4 m/S 748 mmHg 93%
    07:00 -2°C° 0 mm 4 m/S 748 mmHg 92%
    08:00 -2°C° 0 mm 4 m/S 749 mmHg 92%
    09:00 -2°C° 0 mm 4 m/S 749 mmHg 91%
    10:00 -2°C° 0 mm 4 m/S 750 mmHg 91%
    11:00 -2°C° 0.1 mm 4 m/S 750 mmHg 90%
    12:00 -1°C° 0.1 mm 4 m/S 750 mmHg 90%
    13:00 0°C° 0.1 mm 3 m/S 750 mmHg 89%
    14:00 0°C° 0 mm 3 m/S 750 mmHg 90%
    15:00 -1°C° 0 mm 3 m/S 750 mmHg 90%
    16:00 -1°C° 0 mm 3 m/S 750 mmHg 91%
    17:00 -1°C° 0 mm 2 m/S 750 mmHg 92%
    18:00 -2°C° 0 mm 2 m/S 751 mmHg 92%
    19:00 -2°C° 0 mm 2 m/S 751 mmHg 92%
    20:00 -2°C° 0 mm 2 m/S 751 mmHg 93%
    21:00 -2°C° 0 mm 2 m/S 751 mmHg 93%
    22:00 -2°C° 0 mm 2 m/S 751 mmHg 94%
    23:00 -2°C° 0 mm 2 m/S 751 mmHg 94%

    13 Dezember, Donnerstag

    Zeit Temperatur Niederschläge Wind Luftdruck Luftfeuchtigkeit
    00:00 -2°C° 0 mm 2 m/S 751 mmHg 94%
    01:00 -2°C° 0 mm 2 m/S 751 mmHg 95%
    02:00 -2°C° 0 mm 2 m/S 751 mmHg 94%
    03:00 -2°C° 0 mm 2 m/S 751 mmHg 94%
    04:00 -1°C° 0 mm 2 m/S 751 mmHg 94%
    05:00 -1°C° 0.1 mm 2 m/S 751 mmHg 93%
    06:00 -1°C° 0.1 mm 2 m/S 751 mmHg 93%
    07:00 -1°C° 0.1 mm 2 m/S 751 mmHg 92%
    08:00 -1°C° 0 mm 3 m/S 751 mmHg 91%
    09:00 -1°C° 0 mm 3 m/S 751 mmHg 90%
    10:00 -1°C° 0 mm 3 m/S 751 mmHg 89%
    11:00 -1°C° 0.1 mm 3 m/S 751 mmHg 88%
    12:00 -1°C° 0.1 mm 3 m/S 751 mmHg 86%
    13:00 0°C° 0.1 mm 3 m/S 750 mmHg 85%
    14:00 -1°C° 0 mm 3 m/S 751 mmHg 86%
    15:00 -1°C° 0 mm 3 m/S 751 mmHg 87%
    16:00 -1°C° 0 mm 2 m/S 751 mmHg 88%
    17:00 -2°C° 0 mm 2 m/S 751 mmHg 90%
    18:00 -2°C° 0 mm 2 m/S 751 mmHg 91%
    19:00 -2°C° 0 mm 2 m/S 751 mmHg 92%
    20:00 -2°C° 0 mm 2 m/S 751 mmHg 92%
    21:00 -2°C° 0 mm 2 m/S 752 mmHg 92%
    22:00 -2°C° 0 mm 2 m/S 752 mmHg 92%
    23:00 -2°C° 0 mm 2 m/S 752 mmHg 92%

    14 Dezember, Freitag

    Zeit Temperatur Niederschläge Wind Luftdruck Luftfeuchtigkeit
    00:00 -2°C° 0 mm 2 m/S 752 mmHg 92%
    01:00 -2°C° 0 mm 2 m/S 752 mmHg 92%
    02:00 -2°C° 0 mm 2 m/S 752 mmHg 92%
    03:00 -2°C° 0 mm 2 m/S 753 mmHg 92%
    04:00 -2°C° 0 mm 2 m/S 753 mmHg 92%
    05:00 -2°C° 0 mm 2 m/S 753 mmHg 92%
    06:00 -2°C° 0 mm 2 m/S 753 mmHg 91%
    07:00 -2°C° 0 mm 2 m/S 753 mmHg 91%
    08:00 -2°C° 0 mm 2 m/S 754 mmHg 90%
    09:00 -2°C° 0 mm 2 m/S 754 mmHg 89%
    10:00 -1°C° 0 mm 2 m/S 754 mmHg 88%
    11:00 -1°C° 0 mm 2 m/S 754 mmHg 87%
    12:00 -1°C° 0 mm 2 m/S 754 mmHg 86%
    13:00 -1°C° 0 mm 2 m/S 755 mmHg 86%
    14:00 -1°C° 0 mm 2 m/S 755 mmHg 87%
    15:00 -1°C° 0 mm 2 m/S 755 mmHg 89%
    16:00 -1°C° 0 mm 2 m/S 755 mmHg 90%
    17:00 -1°C° 0 mm 2 m/S 755 mmHg 91%
    18:00 -2°C° 0 mm 2 m/S 756 mmHg 91%
    19:00 -2°C° 0 mm 2 m/S 756 mmHg 92%
    20:00 -2°C° 0 mm 2 m/S 756 mmHg 92%
    21:00 -2°C° 0 mm 2 m/S 757 mmHg 92%
    22:00 -2°C° 0 mm 2 m/S 757 mmHg 92%
    23:00 -1°C° 0 mm 2 m/S 757 mmHg 92%

    15 Dezember, Samstag

    Zeit Temperatur Niederschläge Wind Luftdruck Luftfeuchtigkeit
    00:00 -1°C° 0 mm 2 m/S 757 mmHg 92%
    01:00 -1°C° 0 mm 2 m/S 757 mmHg 92%
    02:00 -1°C° 0 mm 2 m/S 757 mmHg 92%
    03:00 -2°C° 0 mm 2 m/S 757 mmHg 92%
    04:00 -2°C° 0 mm 2 m/S 757 mmHg 92%
    05:00 -2°C° 0 mm 2 m/S 758 mmHg 90%
    06:00 -2°C° 0 mm 3 m/S 758 mmHg 89%
    07:00 -2°C° 0 mm 3 m/S 758 mmHg 88%
    08:00 -2°C° 0 mm 3 m/S 758 mmHg 85%
    09:00 -1°C° 0 mm 3 m/S 758 mmHg 83%
    10:00 -1°C° 0 mm 3 m/S 759 mmHg 80%
    11:00 -1°C° 0 mm 3 m/S 759 mmHg 78%
    12:00 -1°C° 0 mm 3 m/S 759 mmHg 77%
    13:00 -1°C° 0 mm 3 m/S 758 mmHg 75%
    14:00 -1°C° 0 mm 3 m/S 758 mmHg 77%
    15:00 -1°C° 0 mm 3 m/S 758 mmHg 78%
    16:00 -2°C° 0 mm 3 m/S 758 mmHg 80%
    17:00 -2°C° 0 mm 3 m/S 758 mmHg 82%
    18:00 -2°C° 0 mm 3 m/S 759 mmHg 83%
    19:00 -2°C° 0 mm 3 m/S 759 mmHg 85%
    20:00 -4°C° 0 mm 3 m/S 759 mmHg 86%
    21:00 -4°C° 0 mm 3 m/S 759 mmHg 87%
    22:00 -4°C° 0 mm 3 m/S 759 mmHg 88%
    23:00 -4°C° 0 mm 3 m/S 759 mmHg 88%
    Mehr zeigen